Ketchikan, AK

5:13 PM AKST on February 20, 2019 (GMT -0900)
Ketchikan International

Weather History for PAKT - January, 2019

Change the Weather History Date:

Sunday, January 6, 2019

  Actual Average Record
Temperature  
Mean Temperature 26 °F -  
Max Temperature 28 °F 35 °F 62 °F (1958)
Min Temperature 24 °F 25 °F 2 °F (1965)
Degree Days  
Heating Degree Days 39    
Moisture  
Dew Point 12 °F    
Average Humidity 51    
Maximum Humidity 59    
Minimum Humidity 47    
Precipitation  
Precipitation 0.00 in - - ()
Sea Level Pressure  
Sea Level Pressure 29.40 in    
Wind  
Wind Speed 15 mph (NNW)    
Max Wind Speed 21 mph    
Max Gust Speed 28 mph    
Visibility 10 miles    
Events      
Averages and records for this station are not official NWS values.
T = Trace of Precipitation, MM = Missing Value Source: NWS Daily Summary

Daily Weather History Graph

Daily Weather History Graph

Search for Another Location

Airport or City:

Astronomy

Jan. 06, 2019 Rise Set
Actual Time 8:11 AM AKST 3:33 PM AKST
Civil Twilight 7:26 AM AKST 4:18 PM AKST
Nautical Twilight 6:39 AM AKST 5:06 PM AKST
Astronomical Twilight 5:55 AM AKST 5:50 PM AKST
Moon 8:40 AM AKST (1/6) 4:25 PM AKST (1/6)
Length of Visible Light 8h 52m
Length of Day
7h 21m
New Moon, 1% of the Moon is Illuminated
Jan 6
New Moon
Jan 13
First Quarter
Jan 20
Full
Jan 27
Last Quarter
Feb 4
New

Hourly Weather History & Observations

Time (AKST) Temp. Windchill Dew Point Humidity Pressure Visibility Wind Dir Wind Speed Gust Speed Precip Events Conditions
12:53 AM 28.9 °F 17.7 °F 14.0 °F 54% 29.27 in 10.0 mi NW 15.0 mph 24.2 mph N/A   Clear
1:53 AM 28.9 °F 16.9 °F 12.0 °F 49% 29.27 in 10.0 mi NW 17.3 mph 26.5 mph N/A   Clear
2:53 AM 28.0 °F 18.1 °F 12.9 °F 53% 29.26 in 10.0 mi NW 11.5 mph 21.9 mph N/A   Clear
3:53 AM 28.0 °F 15.3 °F 10.9 °F 49% 29.26 in 10.0 mi NW 18.4 mph 27.6 mph N/A   Clear
4:53 AM 28.0 °F 16.5 °F 10.9 °F 49% 29.25 in 10.0 mi NW 15.0 mph 25.3 mph N/A   Clear
5:53 AM 28.0 °F 14.9 °F 12.0 °F 51% 29.24 in 10.0 mi NNW 19.6 mph 27.6 mph N/A   Clear
6:06 AM 28.0 °F 15.3 °F 12.9 °F 53% 29.25 in 10.0 mi NW 18.4 mph - N/A   Clear
6:53 AM 28.4 °F 15.1 °F 12.2 °F 51% 29.25 in 10.0 mi NW 20.7 mph 24.2 mph N/A   Clear
7:53 AM 28.4 °F 15.8 °F 12.2 °F 51% 29.27 in 10.0 mi NNW 18.4 mph - N/A   Clear
8:53 AM 28.4 °F 15.4 °F 12.2 °F 51% 29.29 in 10.0 mi NNW 19.6 mph - N/A   Clear
9:53 AM 26.6 °F 13.4 °F 12.2 °F 55% 29.30 in 10.0 mi NW 18.4 mph - N/A   Clear
10:53 AM 28.4 °F 17.0 °F 12.2 °F 51% 29.32 in 10.0 mi NNW 15.0 mph 23.0 mph N/A   Clear
11:53 AM 28.4 °F 16.6 °F 12.2 °F 51% 29.35 in 10.0 mi NNW 16.1 mph - N/A   Clear
12:53 PM 28.4 °F 16.2 °F 10.4 °F 47% 29.37 in 10.0 mi NNW 17.3 mph - N/A   Clear
1:53 PM 28.4 °F 17.5 °F 12.2 °F 51% 29.40 in 10.0 mi NNW 13.8 mph - N/A   Clear
2:53 PM 28.4 °F 18.0 °F 10.4 °F 47% 29.43 in 10.0 mi North 12.7 mph - N/A   Clear
3:53 PM 28.4 °F 18.0 °F 12.2 °F 51% 29.47 in 10.0 mi NNW 12.7 mph - N/A   Mostly Cloudy
4:53 PM 28.4 °F 18.0 °F 12.2 °F 51% 29.50 in 10.0 mi NNW 12.7 mph - N/A   Clear
5:53 PM 24.8 °F 17.9 °F 12.2 °F 59% 29.52 in 10.0 mi NW 5.8 mph - N/A   Clear
6:53 PM 28.4 °F 19.7 °F 10.4 °F 47% 29.55 in 10.0 mi North 9.2 mph - N/A   Overcast
7:53 PM 26.6 °F 16.2 °F 10.4 °F 51% 29.58 in 10.0 mi NNW 11.5 mph - N/A   Overcast
8:53 PM 28.4 °F 21.2 °F 10.4 °F 47% 29.62 in 10.0 mi NNW 6.9 mph - N/A   Overcast
9:53 PM 28.0 °F 20.8 °F 10.9 °F 49% 29.65 in 10.0 mi North 6.9 mph - N/A   Overcast
10:53 PM 27.0 °F 18.7 °F 10.9 °F 51% 29.68 in 10.0 mi North 8.1 mph - N/A   Overcast
11:53 PM 27.0 °F 19.5 °F 10.9 °F 51% 29.71 in 10.0 mi North 6.9 mph - N/A   Overcast